| time (UTC) | temp F | wind direction | speed knots | gust knots | rain 1hr in | rain 24hr in | rain mn in | humidity % | barometer mb |
| 20260906090552 | 86 | 185 | 2.6 | 5.2 | 0.00 | 0.00 | 0.00 | 49 | 1015.7 |
| 20260906090031 | 86 | 209 | 3.5 | 5.2 | 0.00 | 0.00 | 0.00 | 48 | 1015.7 |
| 20260906085539 | 86 | 188 | 2.6 | 5.2 | 0.00 | 0.00 | 0.00 | 51 | 1015.8 |
| 20260906085031 | 86 | 194 | 0.9 | 5.2 | 0.00 | 0.00 | 0.00 | 51 | 1015.8 |
| 20260906084542 | 86 | 184 | 3.5 | 5.2 | 0.00 | 0.00 | 0.00 | 51 | 1015.8 |
| 20260906084027 | 87 | 209 | 2.6 | 4.3 | 0.00 | 0.00 | 0.00 | 51 | 1015.9 |
| 20260906083539 | 86 | 161 | 2.6 | 4.3 | 0.00 | 0.00 | 0.00 | 51 | 1015.8 |
| 20260906083043 | 85 | 148 | 0.9 | 5.2 | 0.00 | 0.00 | 0.00 | 53 | 1015.9 |
| 20260906082532 | 84 | 168 | 2.6 | 6.1 | 0.00 | 0.00 | 0.00 | 55 | 1015.8 |
| 20260906082034 | 84 | 211 | 2.6 | 6.1 | 0.00 | 0.00 | 0.00 | 55 | 1015.8 |
| 20260906081543 | 84 | 211 | 4.3 | 5.2 | 0.00 | 0.00 | 0.00 | 54 | 1015.8 |
| 20260906081032 | 85 | 171 | 2.6 | 4.3 | 0.00 | 0.00 | 0.00 | 51 | 1015.8 |
| 20260906080544 | 85 | 138 | 1.7 | 4.3 | 0.00 | 0.00 | 0.00 | 50 | 1015.8 |
| 20260906080042 | 86 | 150 | 1.7 | 4.3 | 0.00 | 0.00 | 0.00 | 47 | 1015.7 |
| 20260906075532 | 85 | 153 | 1.7 | 6.1 | 0.00 | 0.00 | 0.00 | 46 | 1015.7 |
| 20260906075031 | 86 | 156 | 1.7 | 6.1 | 0.00 | 0.00 | 0.00 | 47 | 1015.6 |
| 20260906074601 | 85 | 119 | 0.9 | 3.5 | 0.00 | 0.00 | 0.00 | 49 | 1015.6 |
| 20260906074027 | 85 | 145 | 0.9 | 3.5 | 0.00 | 0.00 | 0.00 | 49 | 1015.5 |
| 20260906073602 | 85 | 223 | 1.7 | 3.5 | 0.00 | 0.00 | 0.00 | 47 | 1015.5 |
| 20260906073027 | 85 | 132 | 1.7 | 3.5 | 0.00 | 0.00 | 0.00 | 44 | 1015.5 |
| 20260906072533 | 84 | 132 | 0.9 | 4.3 | 0.00 | 0.00 | 0.00 | 43 | 1015.5 |
| 20260906072027 | 84 | 159 | 0.0 | 3.5 | 0.00 | 0.00 | 0.00 | 45 | 1015.4 |
| 20260906071559 | 83 | 159 | 0.0 | 3.5 | 0.00 | 0.00 | 0.00 | 46 | 1015.4 |
| 20260906071030 | 83 | 159 | 1.7 | 2.6 | 0.00 | 0.00 | 0.00 | 49 | 1015.3 |
| 20260906070541 | 83 | 157 | 0.9 | 3.5 | 0.00 | 0.00 | 0.00 | 50 | 1015.4 |
| 20260906070033 | 83 | 155 | 1.7 | 3.5 | 0.00 | 0.00 | 0.00 | 52 | 1015.2 |
| 20260906065548 | 82 | 138 | 0.0 | 1.7 | 0.00 | 0.00 | 0.00 | 54 | 1015.1 |
| 20260906065028 | 82 | 135 | 0.0 | 2.6 | 0.00 | 0.00 | 0.00 | 53 | 1015.1 |
| 20260906064602 | 82 | 134 | 0.0 | 2.6 | 0.00 | 0.00 | 0.00 | 55 | 1015.1 |
| 20260906064030 | 82 | 125 | 0.9 | 3.5 | 0.00 | 0.00 | 0.00 | 55 | 1015.0 |
| 20260906063537 | 82 | 125 | 1.7 | 3.5 | 0.00 | 0.00 | 0.00 | 55 | 1015.0 |
| 20260906063027 | 81 | 125 | 0.9 | 3.5 | 0.00 | 0.00 | 0.00 | 56 | 1015.0 |
| 20260906062537 | 81 | 125 | 1.7 | 4.3 | 0.00 | 0.00 | 0.00 | 54 | 1015.0 |
| 20260906062106 | 82 | 137 | 1.7 | 3.5 | 0.00 | 0.00 | 0.00 | 51 | 1015.0 |
| 20260906061525 | 82 | 65 | 0.9 | 2.6 | 0.00 | 0.00 | 0.00 | 49 | 1015.0 |
| 20260906061045 | 81 | 65 | 0.0 | 1.7 | 0.00 | 0.00 | 0.00 | 48 | 1015.0 |
| 20260906060531 | 80 | 65 | 0.0 | 1.7 | 0.00 | 0.00 | 0.00 | 49 | 1015.0 |
| 20260906060042 | 81 | 65 | 0.0 | 0.9 | 0.00 | 0.00 | 0.00 | 51 | 1015.0 |
| 20260906055528 | 80 | 65 | 0.0 | 0.0 | 0.00 | 0.00 | 0.00 | 50 | 1014.9 |
| 20260906055042 | 80 | 65 | 0.0 | 1.7 | 0.00 | 0.00 | 0.00 | 49 | 1015.0 |
| 20260906054542 | 80 | 65 | 0.0 | 1.7 | 0.00 | 0.00 | 0.00 | 49 | 1014.9 |
| 20260906054031 | 80 | 44 | 0.0 | 1.7 | 0.00 | 0.00 | 0.00 | 48 | 1014.9 |
| 20260906053543 | 80 | 44 | 0.9 | 1.7 | 0.00 | 0.00 | 0.00 | 47 | 1014.9 |
| 20260906053033 | 80 | 44 | 0.0 | 0.0 | 0.00 | 0.00 | 0.00 | 46 | 1014.8 |
| 20260906052539 | 80 | 44 | 0.0 | 0.0 | 0.00 | 0.00 | 0.00 | 46 | 1014.9 |
| 20260906052027 | 79 | 44 | 0.0 | 0.0 | 0.00 | 0.00 | 0.00 | 46 | 1014.8 |
| 20260906051530 | 79 | 44 | 0.0 | 1.7 | 0.00 | 0.00 | 0.00 | 45 | 1014.9 |
| 20260906051044 | 79 | 44 | 0.0 | 2.6 | 0.00 | 0.00 | 0.00 | 44 | 1014.9 |
| 20260906050530 | 78 | 38 | 0.9 | 3.5 | 0.00 | 0.00 | 0.00 | 43 | 1014.8 |
| 20260906050046 | 78 | 36 | 1.7 | 3.5 | 0.00 | 0.00 | 0.00 | 44 | 1014.8 |
| 20260906045535 | 78 | 26 | 0.9 | 5.2 | 0.00 | 0.00 | 0.00 | 43 | 1014.8 |
| 20260906045058 | 78 | 24 | 2.6 | 5.2 | 0.00 | 0.00 | 0.00 | 44 | 1014.7 |
| 20260906044544 | 78 | 30 | 2.6 | 7.0 | 0.00 | 0.00 | 0.00 | 44 | 1014.6 |
| 20260906044030 | 78 | 44 | 3.5 | 7.0 | 0.00 | 0.00 | 0.00 | 44 | 1014.6 |
| 20260906043540 | 78 | 53 | 0.9 | 4.3 | 0.00 | 0.00 | 0.00 | 44 | 1014.6 |
| 20260906043034 | 78 | 27 | 1.7 | 5.2 | 0.00 | 0.00 | 0.00 | 44 | 1014.5 |
| 20260906042530 | 78 | 40 | 1.7 | 5.2 | 0.00 | 0.00 | 0.00 | 44 | 1014.4 |
| 20260906042029 | 78 | 58 | 2.6 | 7.0 | 0.00 | 0.00 | 0.00 | 44 | 1014.4 |
| 20260906041544 | 78 | 26 | 2.6 | 7.8 | 0.00 | 0.00 | 0.00 | 43 | 1014.3 |
| 20260906041030 | 78 | 56 | 4.3 | 7.8 | 0.00 | 0.00 | 0.00 | 43 | 1014.3 |
| 20260906040540 | 78 | 60 | 3.5 | 5.2 | 0.00 | 0.00 | 0.00 | 44 | 1014.3 |
| 20260906040040 | 78 | 18 | 2.6 | 4.3 | 0.00 | 0.00 | 0.00 | 44 | 1014.3 |
| 20260906035529 | 78 | 54 | 1.7 | 5.2 | 0.00 | 0.00 | 0.00 | 44 | 1014.3 |
| 20260906035041 | 78 | 11 | 2.6 | 7.0 | 0.00 | 0.00 | 0.00 | 44 | 1014.2 |
| 20260906034528 | 78 | 71 | 2.6 | 7.0 | 0.00 | 0.00 | 0.00 | 44 | 1014.2 |
| 20260906034032 | 78 | 38 | 1.7 | 5.2 | 0.00 | 0.00 | 0.00 | 43 | 1014.2 |
| 20260906033533 | 79 | 75 | 2.6 | 5.2 | 0.00 | 0.00 | 0.00 | 43 | 1014.1 |
| 20260906033035 | 78 | 83 | 2.6 | 5.2 | 0.00 | 0.00 | 0.00 | 43 | 1014.1 |
| 20260906032547 | 78 | 73 | 2.6 | 5.2 | 0.00 | 0.00 | 0.00 | 44 | 1014.1 |
| 20260906032041 | 78 | 52 | 1.7 | 5.2 | 0.00 | 0.00 | 0.00 | 43 | 1014.1 |
| 20260906031531 | 78 | 85 | 3.5 | 5.2 | 0.00 | 0.00 | 0.00 | 44 | 1014.1 |
| 20260906031040 | 78 | 71 | 2.6 | 5.2 | 0.00 | 0.00 | 0.00 | 44 | 1014.0 |
| 20260906030525 | 78 | 55 | 2.6 | 5.2 | 0.00 | 0.00 | 0.00 | 44 | 1014.0 |
| 20260906030042 | 78 | 71 | 2.6 | 6.1 | 0.00 | 0.00 | 0.00 | 44 | 1014.1 |
| 20260906025549 | 78 | 23 | 1.7 | 7.8 | 0.00 | 0.00 | 0.00 | 44 | 1014.0 |
| 20260906025036 | 78 | 30 | 3.5 | 7.0 | 0.00 | 0.00 | 0.00 | 44 | 1014.0 |
| 20260906024551 | 78 | 24 | 2.6 | 7.0 | 0.00 | 0.00 | 0.00 | 45 | 1014.1 |
| 20260906024031 | 78 | 24 | 3.5 | 6.1 | 0.00 | 0.00 | 0.00 | 45 | 1014.1 |
| 20260906023601 | 78 | 65 | 2.6 | 5.2 | 0.00 | 0.00 | 0.00 | 45 | 1014.1 |
| 20260906023029 | 78 | 21 | 1.7 | 4.3 | 0.00 | 0.00 | 0.00 | 45 | 1014.1 |
| 20260906022538 | 78 | 28 | 2.6 | 4.3 | 0.00 | 0.00 | 0.00 | 45 | 1014.1 |
| 20260906022027 | 78 | 36 | 1.7 | 6.1 | 0.00 | 0.00 | 0.00 | 45 | 1014.1 |
| 20260906021603 | 78 | 37 | 0.9 | 6.1 | 0.00 | 0.00 | 0.00 | 44 | 1014.0 |
| 20260906021043 | 79 | 87 | 0.9 | 5.2 | 0.00 | 0.00 | 0.00 | 44 | 1014.1 |
| 20260906020534 | 79 | 54 | 2.6 | 5.2 | 0.00 | 0.00 | 0.00 | 44 | 1014.1 |
| 20260906020037 | 79 | 69 | 0.0 | 5.2 | 0.00 | 0.00 | 0.00 | 44 | 1014.2 |
| 20260906015548 | 79 | 69 | 1.7 | 5.2 | 0.00 | 0.00 | 0.00 | 44 | 1014.2 |
| 20260906015039 | 79 | 20 | 0.9 | 4.3 | 0.00 | 0.00 | 0.00 | 44 | 1014.1 |
| 20260906014530 | 79 | 15 | 2.6 | 4.3 | 0.00 | 0.00 | 0.00 | 44 | 1014.2 |
| 20260906014034 | 79 | 17 | 2.6 | 6.1 | 0.00 | 0.00 | 0.00 | 45 | 1014.1 |
| 20260906013546 | 78 | 39 | 2.6 | 6.1 | 0.00 | 0.00 | 0.00 | 45 | 1014.2 |
| 20260906013032 | 79 | 27 | 1.7 | 5.2 | 0.00 | 0.00 | 0.00 | 44 | 1014.2 |
| 20260906012539 | 79 | 51 | 2.6 | 4.3 | 0.00 | 0.00 | 0.00 | 44 | 1014.2 |
| 20260906012102 | 79 | 48 | 0.9 | 4.3 | 0.00 | 0.00 | 0.00 | 44 | 1014.2 |
| 20260906011539 | 79 | 71 | 1.7 | 5.2 | 0.00 | 0.00 | 0.00 | 44 | 1014.2 |
| 20260906011028 | 79 | 40 | 2.6 | 5.2 | 0.00 | 0.00 | 0.00 | 44 | 1014.2 |
| 20260906010540 | 79 | 55 | 2.6 | 7.0 | 0.00 | 0.00 | 0.00 | 44 | 1014.2 |
| 20260906010039 | 79 | 67 | 2.6 | 7.8 | 0.00 | 0.00 | 0.00 | 43 | 1014.2 |
| 20260906005549 | 79 | 95 | 4.3 | 10.4 | 0.00 | 0.00 | 0.00 | 43 | 1014.1 |
| 20260906005044 | 79 | 21 | 3.5 | 10.4 | 0.00 | 0.00 | 0.00 | 43 | 1014.2 |
| 20260906004544 | 79 | 46 | 4.3 | 12.2 | 0.00 | 0.00 | 0.00 | 43 | 1014.2 |
| 20260906004045 | 79 | 26 | 5.2 | 10.4 | 0.00 | 0.00 | 0.00 | 43 | 1014.2 |
| 20260906003532 | 79 | 24 | 4.3 | 7.8 | 0.00 | 0.00 | 0.00 | 44 | 1014.2 |
| 20260906003033 | 79 | 44 | 5.2 | 9.6 | 0.00 | 0.00 | 0.00 | 44 | 1014.2 |
| 20260906002610 | 79 | 5 | 5.2 | 9.6 | 0.00 | 0.00 | 0.00 | 44 | 1014.2 |
| 20260906002048 | 79 | 350 | 4.3 | 9.6 | 0.00 | 0.00 | 0.00 | 44 | 1014.3 |
| 20260906001536 | 79 | 5 | 3.5 | 7.8 | 0.00 | 0.00 | 0.00 | 44 | 1014.3 |
| 20260906001051 | 79 | 20 | 3.5 | 9.6 | 0.00 | 0.00 | 0.00 | 44 | 1014.3 |
| 20260906000546 | 79 | 5 | 5.2 | 9.6 | 0.00 | 0.00 | 0.00 | 44 | 1014.3 |
| 20260906000046 | 79 | 34 | 4.3 | 7.8 | 0.00 | 0.00 | 0.00 | 44 | 1014.3 |
| 20260905235535 | 79 | 33 | 4.3 | 8.7 | 0.00 | 0.00 | 0.00 | 44 | 1014.4 |
| 20260905235039 | 80 | 21 | 4.3 | 8.7 | 0.00 | 0.00 | 0.00 | 43 | 1014.4 |
| 20260905234530 | 80 | 55 | 3.5 | 8.7 | 0.00 | 0.00 | 0.00 | 43 | 1014.5 |
| 20260905234040 | 80 | 32 | 5.2 | 9.6 | 0.00 | 0.00 | 0.00 | 43 | 1014.5 |
| 20260905233554 | 80 | 24 | 3.5 | 7.8 | 0.00 | 0.00 | 0.00 | 43 | 1014.4 |
| 20260905233042 | 80 | 52 | 4.3 | 8.7 | 0.00 | 0.00 | 0.00 | 43 | 1014.4 |
| 20260905232532 | 80 | 30 | 3.5 | 8.7 | 0.00 | 0.00 | 0.00 | 43 | 1014.4 |
| 20260905232106 | 80 | 19 | 4.3 | 7.8 | 0.00 | 0.00 | 0.00 | 43 | 1014.5 |
| 20260905231535 | 80 | 355 | 3.5 | 7.0 | 0.00 | 0.00 | 0.00 | 43 | 1014.5 |
| 20260905231049 | 80 | 19 | 3.5 | 7.8 | 0.00 | 0.00 | 0.00 | 43 | 1014.6 |
| 20260905230544 | 80 | 51 | 2.6 | 8.7 | 0.00 | 0.00 | 0.00 | 43 | 1014.6 |
| 20260905230052 | 80 | 32 | 4.3 | 7.0 | 0.00 | 0.00 | 0.00 | 43 | 1014.6 |
| 20260905225546 | 80 | 15 | 2.6 | 6.1 | 0.00 | 0.00 | 0.00 | 43 | 1014.7 |
| 20260905225030 | 80 | 65 | 2.6 | 7.0 | 0.00 | 0.00 | 0.00 | 43 | 1014.6 |
| 20260905224538 | 80 | 44 | 3.5 | 7.0 | 0.00 | 0.00 | 0.00 | 43 | 1014.6 |
| 20260905224028 | 80 | 53 | 3.5 | 6.1 | 0.00 | 0.00 | 0.00 | 43 | 1014.6 |
| 20260905223541 | 80 | 30 | 2.6 | 5.2 | 0.00 | 0.00 | 0.00 | 43 | 1014.8 |
| 20260905223039 | 80 | 32 | 2.6 | 5.2 | 0.00 | 0.00 | 0.00 | 43 | 1014.7 |
| 20260905222552 | 81 | 29 | 1.7 | 5.2 | 0.00 | 0.00 | 0.00 | 43 | 1014.7 |
| 20260905222036 | 81 | 32 | 2.6 | 6.1 | 0.00 | 0.00 | 0.00 | 43 | 1014.7 |
| 20260905221610 | 81 | 12 | 2.6 | 6.1 | 0.00 | 0.00 | 0.00 | 43 | 1014.7 |
| 20260905221038 | 81 | 31 | 3.5 | 7.0 | 0.00 | 0.00 | 0.00 | 43 | 1014.7 |
| 20260905220552 | 81 | 23 | 3.5 | 7.8 | 0.00 | 0.00 | 0.00 | 43 | 1014.7 |
| 20260905220033 | 81 | 42 | 3.5 | 7.8 | 0.00 | 0.00 | 0.00 | 43 | 1014.7 |
| 20260905215542 | 81 | 27 | 3.5 | 6.1 | 0.00 | 0.00 | 0.00 | 43 | 1014.7 |
| 20260905215049 | 82 | 360 | 2.6 | 5.2 | 0.00 | 0.00 | 0.00 | 43 | 1014.7 |
| 20260905214540 | 82 | 42 | 2.6 | 5.2 | 0.00 | 0.00 | 0.00 | 43 | 1014.8 |
| 20260905214034 | 82 | 58 | 0.9 | 6.1 | 0.00 | 0.00 | 0.00 | 43 | 1014.9 |
| 20260905213549 | 82 | 24 | 1.7 | 5.2 | 0.00 | 0.00 | 0.00 | 43 | 1014.9 |
| 20260905213054 | 82 | 17 | 2.6 | 5.2 | 0.00 | 0.00 | 0.00 | 43 | 1014.9 |
| 20260905212540 | 82 | 355 | 2.6 | 6.1 | 0.00 | 0.00 | 0.00 | 42 | 1014.9 |
| 20260905212044 | 82 | 67 | 2.6 | 7.0 | 0.00 | 0.00 | 0.00 | 42 | 1014.8 |
| 20260905211558 | 82 | 21 | 3.5 | 7.0 | 0.00 | 0.00 | 0.00 | 42 | 1014.8 |
| 20260905211045 | 82 | 61 | 3.5 | 7.0 | 0.00 | 0.00 | 0.00 | 43 | 1014.8 |
| 20260905210605 | 82 | 24 | 3.5 | 6.1 | 0.00 | 0.00 | 0.00 | 43 | 1014.8 |
| 20260905210050 | 82 | 39 | 1.7 | 6.1 | 0.00 | 0.00 | 0.00 | 43 | 1014.9 |
| 20260905205552 | 83 | 34 | 4.3 | 6.1 | 0.00 | 0.00 | 0.00 | 42 | 1015.0 |
| 20260905205046 | 83 | 36 | 2.6 | 7.0 | 0.00 | 0.00 | 0.00 | 42 | 1014.9 |
| 20260905204540 | 83 | 43 | 3.5 | 7.0 | 0.00 | 0.00 | 0.00 | 42 | 1014.9 |
| 20260905204029 | 83 | 347 | 4.3 | 7.0 | 0.00 | 0.00 | 0.00 | 42 | 1014.9 |
| 20260905203541 | 83 | 15 | 2.6 | 6.1 | 0.00 | 0.00 | 0.00 | 42 | 1014.9 |
| 20260905203103 | 83 | 355 | 3.5 | 7.0 | 0.00 | 0.00 | 0.00 | 42 | 1015.0 |
| 20260905202555 | 83 | 50 | 4.3 | 7.0 | 0.00 | 0.00 | 0.00 | 42 | 1014.9 |
| 20260905202037 | 83 | 55 | 2.6 | 7.0 | 0.00 | 0.00 | 0.00 | 43 | 1014.9 |
| 20260905201551 | 83 | 79 | 4.3 | 7.8 | 0.00 | 0.00 | 0.00 | 44 | 1014.9 |
| 20260905201048 | 83 | 40 | 4.3 | 7.8 | 0.00 | 0.00 | 0.00 | 44 | 1014.9 |
| 20260905200540 | 83 | 27 | 4.3 | 7.8 | 0.00 | 0.00 | 0.00 | 44 | 1015.0 |
| 20260905200033 | 83 | 12 | 4.3 | 7.0 | 0.00 | 0.00 | 0.00 | 44 | 1014.9 |
| 20260905195541 | 83 | 322 | 2.6 | 4.3 | 0.00 | 0.00 | 0.00 | 44 | 1015.0 |
| 20260905195046 | 83 | 13 | 1.7 | 4.3 | 0.00 | 0.00 | 0.00 | 44 | 1015.0 |
| 20260905194550 | 83 | 30 | 1.7 | 6.1 | 0.00 | 0.00 | 0.00 | 44 | 1015.0 |
| 20260905194041 | 83 | 35 | 2.6 | 7.8 | 0.00 | 0.00 | 0.00 | 44 | 1015.0 |
| 20260905193534 | 83 | 16 | 1.7 | 7.8 | 0.00 | 0.00 | 0.00 | 44 | 1015.0 |
| 20260905193054 | 83 | 38 | 1.7 | 6.1 | 0.00 | 0.00 | 0.00 | 44 | 1015.0 |
| 20260905192542 | 83 | 21 | 1.7 | 4.3 | 0.00 | 0.00 | 0.00 | 44 | 1015.0 |
| 20260905192033 | 84 | 11 | 1.7 | 5.2 | 0.00 | 0.00 | 0.00 | 44 | 1015.0 |
| 20260905191542 | 84 | 22 | 3.5 | 7.0 | 0.00 | 0.00 | 0.00 | 44 | 1015.0 |
| 20260905191032 | 84 | 80 | 2.6 | 8.7 | 0.00 | 0.00 | 0.00 | 44 | 1014.9 |
| 20260905190548 | 84 | 86 | 5.2 | 7.8 | 0.00 | 0.00 | 0.00 | 44 | 1014.9 |
| 20260905190034 | 84 | 13 | 4.3 | 7.8 | 0.00 | 0.00 | 0.00 | 43 | 1014.9 |
| 20260905185547 | 85 | 5 | 2.6 | 5.2 | 0.00 | 0.00 | 0.00 | 43 | 1014.8 |
| 20260905185034 | 85 | 20 | 2.6 | 5.2 | 0.00 | 0.00 | 0.00 | 42 | 1014.8 |
| 20260905184545 | 85 | 346 | 1.7 | 6.1 | 0.00 | 0.00 | 0.00 | 42 | 1014.7 |
| 20260905184034 | 86 | 38 | 3.5 | 6.1 | 0.00 | 0.00 | 0.00 | 41 | 1014.6 |
| 20260905183543 | 86 | 15 | 2.6 | 6.1 | 0.00 | 0.00 | 0.00 | 40 | 1014.6 |
| 20260905183036 | 86 | 360 | 1.7 | 4.3 | 0.00 | 0.00 | 0.00 | 39 | 1014.6 |
| 20260905182549 | 86 | 5 | 2.6 | 4.3 | 0.00 | 0.00 | 0.00 | 39 | 1014.5 |
| 20260905182055 | 86 | 5 | 1.7 | 4.3 | 0.00 | 0.00 | 0.00 | 39 | 1014.4 |
| 20260905181542 | 86 | 5 | 2.6 | 4.3 | 0.00 | 0.00 | 0.00 | 39 | 1014.3 |
| 20260905181030 | 86 | 318 | 1.7 | 2.6 | 0.00 | 0.00 | 0.00 | 39 | 1014.3 |
| 20260905180539 | 86 | 291 | 0.9 | 2.6 | 0.00 | 0.00 | 0.00 | 39 | 1014.3 |
| 20260905180053 | 86 | 291 | 0.9 | 4.3 | 0.00 | 0.00 | 0.00 | 39 | 1014.3 |
| 20260905175547 | 86 | 291 | 0.9 | 4.3 | 0.00 | 0.00 | 0.00 | 39 | 1014.3 |
| 20260905175031 | 87 | 286 | 0.9 | 3.5 | 0.00 | 0.00 | 0.00 | 39 | 1014.2 |
| 20260905174540 | 87 | 286 | 0.9 | 3.5 | 0.00 | 0.00 | 0.00 | 38 | 1014.2 |
| 20260905174048 | 87 | 275 | 0.9 | 4.3 | 0.00 | 0.00 | 0.00 | 38 | 1014.2 |
| 20260905173533 | 87 | 262 | 2.6 | 5.2 | 0.00 | 0.00 | 0.00 | 37 | 1014.1 |
| 20260905173050 | 88 | 233 | 1.7 | 5.2 | 0.00 | 0.00 | 0.00 | 35 | 1014.0 |
| 20260905172549 | 89 | 355 | 0.9 | 6.1 | 0.00 | 0.00 | 0.00 | 34 | 1014.0 |
| 20260905172038 | 89 | 355 | 1.7 | 6.1 | 0.00 | 0.00 | 0.00 | 34 | 1013.9 |
| 20260905171545 | 89 | 296 | 2.6 | 5.2 | 0.00 | 0.00 | 0.00 | 35 | 1013.8 |
| 20260905171049 | 89 | 246 | 1.7 | 5.2 | 0.00 | 0.00 | 0.00 | 35 | 1013.7 |
| 20260905170545 | 89 | 217 | 3.5 | 5.2 | 0.00 | 0.00 | 0.00 | 35 | 1013.7 |
| 20260905170034 | 89 | 244 | 1.7 | 3.5 | 0.00 | 0.04 | 0.00 | 35 | 1013.7 |
| 20260905165545 | 89 | 252 | 1.7 | 3.5 | 0.00 | 0.04 | 0.00 | 34 | 1013.7 |
| 20260905165032 | 89 | 327 | 0.9 | 6.1 | 0.00 | 0.04 | 0.00 | 35 | 1013.7 |
| 20260905164548 | 89 | 34 | 3.5 | 7.0 | 0.00 | 0.04 | 0.00 | 34 | 1013.7 |
| 20260905164037 | 90 | 279 | 0.9 | 7.0 | 0.00 | 0.04 | 0.00 | 33 | 1013.7 |
| 20260905163552 | 90 | 313 | 2.6 | 7.8 | 0.00 | 0.04 | 0.00 | 33 | 1013.6 |
| 20260905163036 | 90 | 280 | 3.5 | 7.8 | 0.00 | 0.04 | 0.00 | 33 | 1013.5 |
| 20260905162548 | 90 | 305 | 4.3 | 10.4 | 0.00 | 0.04 | 0.00 | 33 | 1013.5 |
| 20260905162036 | 91 | 311 | 3.5 | 10.4 | 0.00 | 0.04 | 0.00 | 33 | 1013.5 |
| 20260905161543 | 91 | 306 | 4.3 | 11.3 | 0.00 | 0.04 | 0.00 | 32 | 1013.5 |
| 20260905161033 | 91 | 313 | 5.2 | 10.4 | 0.00 | 0.04 | 0.00 | 32 | 1013.5 |
| 20260905160542 | 91 | 287 | 7.0 | 10.4 | 0.00 | 0.04 | 0.00 | 31 | 1013.6 |
| 20260905160034 | 91 | 315 | 4.3 | 10.4 | 0.00 | 0.04 | 0.00 | 32 | 1013.7 |
| 20260905155547 | 91 | 312 | 4.3 | 10.4 | 0.00 | 0.04 | 0.00 | 31 | 1013.7 |
| 20260905155038 | 92 | 312 | 5.2 | 9.6 | 0.00 | 0.04 | 0.00 | 31 | 1013.7 |
| 20260905154552 | 92 | 360 | 4.3 | 7.8 | 0.00 | 0.04 | 0.00 | 32 | 1013.8 |
| 20260905154056 | 91 | 78 | 0.9 | 6.1 | 0.00 | 0.04 | 0.00 | 35 | 1013.8 |
| 20260905153544 | 91 | 242 | 2.6 | 4.3 | 0.00 | 0.04 | 0.00 | 34 | 1013.8 |
| 20260905153055 | 91 | 262 | 2.6 | 4.3 | 0.00 | 0.04 | 0.00 | 35 | 1013.8 |
| 20260905152546 | 91 | 181 | 1.7 | 6.1 | 0.00 | 0.04 | 0.00 | 35 | 1013.8 |
| 20260905152034 | 91 | 205 | 3.5 | 6.1 | 0.00 | 0.04 | 0.00 | 35 | 1013.7 |
| 20260905151543 | 91 | 223 | 2.6 | 6.1 | 0.00 | 0.04 | 0.00 | 34 | 1013.8 |
| 20260905151036 | 92 | 193 | 2.6 | 6.1 | 0.00 | 0.04 | 0.00 | 33 | 1013.7 |
| 20260905150544 | 92 | 144 | 2.6 | 3.5 | 0.00 | 0.04 | 0.00 | 33 | 1013.7 |
| 20260905150033 | 92 | 209 | 1.7 | 4.3 | 0.00 | 0.51 | 0.00 | 34 | 1013.7 |
| 20260905145547 | 92 | 214 | 1.7 | 6.1 | 0.00 | 0.51 | 0.00 | 34 | 1013.6 |
| 20260905145040 | 92 | 121 | 3.5 | 6.1 | 0.00 | 0.51 | 0.00 | 33 | 1013.6 |
| 20260905144631 | 92 | 190 | 4.3 | 6.1 | 0.00 | 0.51 | 0.00 | 34 | 1013.6 |
| 20260905144031 | 92 | 184 | 2.6 | 5.2 | 0.00 | 0.51 | 0.00 | 33 | 1013.5 |
| 20260905143543 | 92 | 218 | 1.7 | 6.1 | 0.00 | 0.51 | 0.00 | 35 | 1013.6 |
| 20260905143029 | 91 | 200 | 4.3 | 6.1 | 0.00 | 0.51 | 0.00 | 38 | 1013.6 |
| 20260905142545 | 92 | 231 | 3.5 | 5.2 | 0.00 | 0.51 | 0.00 | 39 | 1013.5 |
| 20260905142031 | 92 | 158 | 2.6 | 7.0 | 0.00 | 0.51 | 0.00 | 34 | 1013.6 |
| 20260905141539 | 92 | 205 | 4.3 | 7.0 | 0.00 | 0.51 | 0.00 | 36 | 1013.7 |
| 20260905141028 | 91 | 192 | 3.5 | 7.0 | 0.00 | 0.51 | 0.00 | 37 | 1013.6 |
| 20260905140546 | 92 | 198 | 4.3 | 7.8 | 0.00 | 0.51 | 0.00 | 35 | 1013.6 |
| 20260905140038 | 93 | 197 | 4.3 | 7.8 | 0.00 | 0.59 | 0.00 | 34 | 1013.5 |
| 20260905135550 | 92 | 155 | 4.3 | 8.7 | 0.00 | 0.59 | 0.00 | 35 | 1013.5 |
| 20260905135054 | 92 | 132 | 4.3 | 7.8 | 0.00 | 0.59 | 0.00 | 36 | 1013.5 |
| 20260905134527 | 92 | 177 | 4.3 | 7.8 | 0.00 | 0.59 | 0.00 | 37 | 1013.5 |
| 20260905134042 | 92 | 184 | 4.3 | 8.7 | 0.00 | 0.59 | 0.00 | 37 | 1013.5 |
| 20260905133542 | 92 | 178 | 4.3 | 10.4 | 0.00 | 0.59 | 0.00 | 38 | 1013.5 |
| 20260905133038 | 92 | 161 | 4.3 | 10.4 | 0.00 | 0.59 | 0.00 | 39 | 1013.6 |
| 20260905132558 | 92 | 175 | 5.2 | 9.6 | 0.00 | 0.59 | 0.00 | 39 | 1013.6 |
| 20260905132043 | 92 | 167 | 4.3 | 9.6 | 0.00 | 0.59 | 0.00 | 40 | 1013.6 |
| 20260905131543 | 92 | 160 | 3.5 | 8.7 | 0.00 | 0.59 | 0.00 | 38 | 1013.5 |
| 20260905131103 | 92 | 173 | 3.5 | 12.2 | 0.00 | 0.59 | 0.00 | 38 | 1013.7 |
| 20260905130554 | 92 | 178 | 4.3 | 12.2 | 0.00 | 0.59 | 0.00 | 37 | 1013.6 |
| 20260905130105 | 92 | 163 | 5.2 | 11.3 | 0.00 | 0.59 | 0.00 | 37 | 1013.6 |
| 20260905125559 | 92 | 192 | 5.2 | 10.4 | 0.00 | 0.59 | 0.00 | 36 | 1013.6 |
| 20260905125046 | 92 | 171 | 5.2 | 11.3 | 0.00 | 0.59 | 0.00 | 36 | 1013.6 |
| 20260905124533 | 92 | 135 | 6.1 | 11.3 | 0.00 | 0.59 | 0.00 | 36 | 1013.7 |
| 20260905124047 | 92 | 204 | 4.3 | 12.2 | 0.00 | 0.59 | 0.00 | 37 | 1013.7 |
| 20260905123542 | 92 | 196 | 4.3 | 12.2 | 0.00 | 0.59 | 0.00 | 38 | 1013.7 |
| 20260905123035 | 92 | 192 | 3.5 | 12.2 | 0.00 | 0.59 | 0.00 | 38 | 1013.7 |
| 20260905122540 | 92 | 161 | 5.2 | 11.3 | 0.00 | 0.59 | 0.00 | 38 | 1013.8 |
| 20260905122028 | 92 | 188 | 4.3 | 9.6 | 0.00 | 0.59 | 0.00 | 38 | 1013.8 |
| 20260905121542 | 92 | 183 | 2.6 | 9.6 | 0.00 | 0.59 | 0.00 | 37 | 1013.9 |
| 20260905121025 | 92 | 175 | 4.3 | 8.7 | 0.00 | 0.59 | 0.00 | 37 | 1013.9 |
| 20260905120546 | 92 | 193 | 4.3 | 8.7 | 0.00 | 0.59 | 0.00 | 38 | 1014.0 |
| 20260905120043 | 91 | 205 | 4.3 | 7.8 | 0.00 | 0.59 | 0.00 | 40 | 1014.0 |
| 20260905115533 | 91 | 143 | 4.3 | 9.6 | 0.00 | 0.59 | 0.00 | 40 | 1014.0 |
| 20260905115043 | 91 | 186 | 4.3 | 13.0 | 0.00 | 0.59 | 0.00 | 40 | 1014.0 |
| 20260905114545 | 90 | 133 | 6.1 | 13.0 | 0.00 | 0.59 | 0.00 | 40 | 1014.1 |
| 20260905114049 | 91 | 205 | 7.0 | 11.3 | 0.00 | 0.59 | 0.00 | 40 | 1014.1 |
| 20260905113536 | 91 | 144 | 3.5 | 11.3 | 0.00 | 0.59 | 0.00 | 41 | 1014.1 |
| 20260905113030 | 90 | 184 | 5.2 | 13.0 | 0.00 | 0.59 | 0.00 | 44 | 1014.2 |
| 20260905112548 | 90 | 138 | 5.2 | 13.0 | 0.00 | 0.59 | 0.00 | 45 | 1014.2 |
| 20260905112042 | 91 | 197 | 4.3 | 11.3 | 0.00 | 0.59 | 0.00 | 43 | 1014.2 |
| 20260905111558 | 91 | 162 | 5.2 | 11.3 | 0.00 | 0.59 | 0.00 | 43 | 1014.1 |
| 20260905111102 | 91 | 176 | 5.2 | 12.2 | 0.00 | 0.59 | 0.00 | 45 | 1014.1 |
| 20260905110534 | 91 | 179 | 6.1 | 12.2 | 0.00 | 0.59 | 0.00 | 44 | 1014.2 |
| 20260905110046 | 91 | 186 | 7.8 | 12.2 | 0.00 | 0.59 | 0.00 | 41 | 1014.1 |
| 20260905105532 | 92 | 128 | 4.3 | 11.3 | 0.00 | 0.59 | 0.00 | 40 | 1014.2 |
| 20260905105103 | 92 | 163 | 4.3 | 12.2 | 0.00 | 0.59 | 0.00 | 38 | 1014.1 |
| 20260905104531 | 93 | 157 | 7.0 | 12.2 | 0.00 | 0.59 | 0.00 | 38 | 1014.2 |
| 20260905104031 | 96 | 171 | 3.5 | 8.7 | 0.00 | 0.59 | 0.00 | 24 | 1013.9 |
| 20260905103539 | 96 | 88 | 2.6 | 6.1 | 0.00 | 0.59 | 0.00 | 24 | 1013.9 |
| 20260905103026 | 96 | 137 | 2.6 | 9.6 | 0.00 | 0.59 | 0.00 | 24 | 1013.9 |
| 20260905102539 | 96 | 72 | 1.7 | 10.4 | 0.00 | 0.59 | 0.00 | 24 | 1014.0 |
| 20260905102034 | 95 | 89 | 5.2 | 9.6 | 0.00 | 0.59 | 0.00 | 24 | 1014.1 |
| 20260905101549 | 94 | 18 | 3.5 | 8.7 | 0.00 | 0.59 | 0.00 | 25 | 1014.0 |
| 20260905101037 | 96 | 41 | 4.3 | 9.6 | 0.00 | 0.59 | 0.00 | 24 | 1014.2 |
| 20260905100551 | 95 | 130 | 0.9 | 8.7 | 0.00 | 0.59 | 0.00 | 24 | 1014.1 |
| 20260905100034 | 95 | 119 | 2.6 | 8.7 | 0.00 | 0.59 | 0.00 | 25 | 1014.3 |
| 20260905095548 | 95 | 18 | 2.6 | 6.1 | 0.00 | 0.59 | 0.00 | 25 | 1014.3 |
| 20260905095034 | 94 | 267 | 0.9 | 7.0 | 0.00 | 0.59 | 0.00 | 26 | 1014.3 |
| 20260905094545 | 95 | 336 | 3.5 | 9.6 | 0.00 | 0.59 | 0.00 | 25 | 1014.4 |
| 20260905094041 | 95 | 51 | 6.1 | 9.6 | 0.00 | 0.59 | 0.00 | 25 | 1014.3 |
| 20260905093530 | 94 | 82 | 2.6 | 11.3 | 0.00 | 0.59 | 0.00 | 26 | 1014.3 |
| 20260905093033 | 94 | 30 | 4.3 | 13.9 | 0.00 | 0.59 | 0.00 | 25 | 1014.4 |
| 20260905092550 | 94 | 72 | 9.6 | 13.9 | 0.00 | 0.59 | 0.00 | 25 | 1014.5 |
| 20260905092037 | 94 | 36 | 6.1 | 9.6 | 0.00 | 0.59 | 0.00 | 26 | 1014.6 |
| 20260905091547 | 93 | 56 | 4.3 | 12.2 | 0.00 | 0.59 | 0.00 | 26 | 1014.6 |
| 20260905091043 | 93 | 35 | 4.3 | 12.2 | 0.00 | 0.59 | 0.00 | 26 | 1014.5 |